IGO301 VOBL-VECC

Flight info

Callsign IGO301
Flight time N/A
Altitude 34000
Route VOBL/27R N0459F350 ANIR7B ANIRO W47 VVZ A465 KAKID KAKI2A VECC/19L
Aircraft A321/M-SDFGHIRWY/C

Departure

Time 2026-04-28 20:31
Airport Kempegowda International Airport Bengaluru (VOBL)

Arrival

Time N/A
Airport Netaji Subhash Chandra Bose International Airport (VECC)
Time Latitude Longitude Altitude Speed Heading
2026-04-28 19:54 13.20165 77.70688 2958 ft 0 kts 181°
2026-04-28 20:21 13.20180 77.70688 2956 ft 3 kts 181°
2026-04-28 20:21 13.20199 77.70689 2948 ft 3 kts 181°
2026-04-28 20:21 13.20218 77.70690 2950 ft 3 kts 174°
2026-04-28 20:22 13.20234 77.70681 2947 ft 3 kts 130°
2026-04-28 20:22 13.20241 77.70664 2949 ft 3 kts 86°
2026-04-28 20:22 13.20241 77.70663 2948 ft 0 kts 86°
2026-04-28 20:26 13.20242 77.70692 2956 ft 12 kts 88°
2026-04-28 20:27 13.20240 77.70800 2949 ft 22 kts 91°
2026-04-28 20:27 13.20241 77.70971 2946 ft 25 kts 90°
2026-04-28 20:27 13.20241 77.71159 2948 ft 27 kts 90°
2026-04-28 20:27 13.20263 77.71276 2940 ft 2 kts 32°
2026-04-28 20:28 13.20292 77.71280 2940 ft 7 kts 360°
2026-04-28 20:28 13.20365 77.71278 2947 ft 17 kts 358°
2026-04-28 20:28 13.20487 77.71277 2942 ft 17 kts 13°
2026-04-28 20:28 13.20524 77.71382 2946 ft 19 kts 90°
2026-04-28 20:29 13.20519 77.71588 2935 ft 33 kts 92°
2026-04-28 20:29 13.20519 77.71828 2930 ft 35 kts 90°
2026-04-28 20:29 13.20515 77.72079 2931 ft 30 kts 94°
2026-04-28 20:29 13.20518 77.72174 2929 ft 9 kts 75°
2026-04-28 20:30 13.20596 77.72201 2929 ft 16 kts 359°
2026-04-28 20:30 13.20684 77.72172 2929 ft 12 kts 303°
2026-04-28 20:30 13.20689 77.72131 2930 ft 0 kts 268°
2026-04-28 20:30 13.20689 77.72109 2930 ft 21 kts 268°
2026-04-28 20:31 13.20694 77.71636 2941 ft 113 kts 270°
2026-04-28 20:31 13.20705 77.70522 3002 ft 189 kts 271°
2026-04-28 20:31 13.20703 77.69094 3654 ft 212 kts 270°
2026-04-28 20:31 13.20706 77.67461 4227 ft 248 kts 268°
2026-04-28 20:32 13.20869 77.65567 4657 ft 290 kts 286°
2026-04-28 20:32 13.21970 77.63778 5140 ft 305 kts 313°
2026-04-28 20:32 13.23486 77.62193 5663 ft 315 kts 312°
2026-04-28 20:32 13.24906 77.60510 6189 ft 317 kts 308°
2026-04-28 20:33 13.26220 77.58685 6699 ft 318 kts 304°
2026-04-28 20:33 13.27448 77.56783 7205 ft 321 kts 303°
2026-04-28 20:33 13.28632 77.54828 7722 ft 324 kts 302°
2026-04-28 20:33 13.29803 77.52840 8248 ft 327 kts 301°
2026-04-28 20:34 13.30646 77.50679 8770 ft 330 kts 278°
2026-04-28 20:34 13.30462 77.48343 9301 ft 332 kts 251°
2026-04-28 20:34 13.29262 77.46329 9853 ft 334 kts 223°
2026-04-28 20:34 13.27307 77.45070 10325 ft 337 kts 197°
2026-04-28 20:35 13.24949 77.44673 10726 ft 352 kts 184°
2026-04-28 20:35 13.22488 77.44269 11109 ft 363 kts 191°
2026-04-28 20:35 13.20037 77.43553 11491 ft 368 kts 194°
2026-04-28 20:35 13.17525 77.43043 11852 ft 370 kts 182°
2026-04-28 20:36 13.14960 77.43232 12154 ft 373 kts 164°
2026-04-28 20:36 13.12595 77.44306 12452 ft 374 kts 143°
2026-04-28 20:36 13.10778 77.46151 12746 ft 373 kts 124°
2026-04-28 20:36 13.09349 77.48419 13052 ft 374 kts 119°
2026-04-28 20:37 13.08018 77.50726 13351 ft 376 kts 118°
2026-04-28 20:37 13.06902 77.53108 13653 ft 376 kts 107°
2026-04-28 20:37 13.06383 77.55724 13936 ft 375 kts 95°
2026-04-28 20:37 13.06189 77.58395 14209 ft 377 kts 92°
2026-04-28 20:38 13.06050 77.61089 14487 ft 379 kts 91°
2026-04-28 20:38 13.05910 77.63794 14761 ft 381 kts 92°
2026-04-28 20:38 13.05761 77.66512 15040 ft 383 kts 92°
2026-04-28 20:38 13.05605 77.69244 15320 ft 385 kts 92°
2026-04-28 20:39 13.05444 77.72002 15603 ft 387 kts 92°
2026-04-28 20:39 13.05280 77.74771 15888 ft 390 kts 92°
2026-04-28 20:39 13.05114 77.77553 16176 ft 392 kts 92°
2026-04-28 20:39 13.04946 77.80355 16466 ft 395 kts 92°
2026-04-28 20:40 13.04776 77.83176 16745 ft 397 kts 92°
2026-04-28 20:40 13.04605 77.86011 17042 ft 399 kts 93°
2026-04-28 20:40 13.04432 77.88863 17329 ft 402 kts 93°
2026-04-28 20:40 13.04260 77.91698 17639 ft 405 kts 93°
2026-04-28 20:41 13.04084 77.94589 17945 ft 407 kts 93°
2026-04-28 20:41 13.03906 77.97503 18242 ft 409 kts 92°
2026-04-28 20:41 13.03728 78.00420 18507 ft 411 kts 92°
2026-04-28 20:41 13.03634 78.03353 18771 ft 412 kts 88°
2026-04-28 20:42 13.03930 78.06281 19037 ft 413 kts 78°
2026-04-28 20:42 13.04735 78.09119 19310 ft 415 kts 68°
2026-04-28 20:42 13.06046 78.11767 19574 ft 418 kts 57°
2026-04-28 20:42 13.07797 78.14102 19841 ft 420 kts 47°
2026-04-28 20:43 13.09979 78.16099 20123 ft 421 kts 36°
2026-04-28 20:43 13.12493 78.17647 20399 ft 423 kts 26°
2026-04-28 20:43 13.15260 78.18692 20686 ft 425 kts 15°
2026-04-28 20:43 13.18181 78.19206 20969 ft 428 kts
2026-04-28 20:44 13.21163 78.19440 21254 ft 430 kts
2026-04-28 20:44 13.24161 78.19622 21545 ft 433 kts
2026-04-28 20:44 13.27175 78.19828 21839 ft 435 kts
2026-04-28 20:44 13.29166 78.20128 22044 ft 437 kts 11°
2026-04-28 20:45 13.32082 78.21048 22339 ft 441 kts 22°
2026-04-28 20:45 13.34846 78.22426 22644 ft 443 kts 27°
2026-04-28 20:45 13.37574 78.23935 22940 ft 446 kts 28°
2026-04-28 20:45 13.41194 78.25969 23333 ft 449 kts 28°
2026-04-28 20:46 13.43052 78.27011 23539 ft 451 kts 28°
2026-04-28 20:46 13.45818 78.28559 23799 ft 453 kts 28°
2026-04-28 20:46 13.48561 78.30091 24068 ft 455 kts 28°
2026-04-28 20:46 13.51359 78.31652 24310 ft 458 kts 28°
2026-04-28 20:47 13.54162 78.33215 24576 ft 460 kts 27°
2026-04-28 20:47 13.56986 78.34789 24846 ft 463 kts 27°
2026-04-28 20:47 13.59831 78.36377 25121 ft 467 kts 27°
2026-04-28 20:47 13.62699 78.37976 25394 ft 471 kts 27°
2026-04-28 20:48 13.65595 78.39590 25657 ft 476 kts 27°
2026-04-28 20:48 13.68517 78.41220 25929 ft 479 kts 27°
2026-04-28 20:48 13.71455 78.42859 26208 ft 481 kts 27°
2026-04-28 20:48 13.74409 78.44508 26493 ft 483 kts 27°
2026-04-28 20:49 13.77329 78.46138 26780 ft 485 kts 26°
2026-04-28 20:49 13.80303 78.47799 27055 ft 486 kts 26°
2026-04-28 20:49 13.83287 78.49466 27349 ft 488 kts 26°
2026-04-28 20:49 13.86278 78.51138 27640 ft 490 kts 26°
2026-04-28 20:50 13.89279 78.52815 27950 ft 492 kts 26°
2026-04-28 20:50 13.92290 78.54499 28248 ft 493 kts 26°
2026-04-28 20:50 13.95319 78.56194 28552 ft 495 kts 26°
2026-04-28 20:50 13.98348 78.57889 28854 ft 496 kts 26°
2026-04-28 20:51 14.01381 78.59589 29177 ft 498 kts 26°
2026-04-28 20:51 14.04319 78.61492 29488 ft 502 kts 32°
2026-04-28 20:51 14.07135 78.63636 29806 ft 504 kts 34°
2026-04-28 20:51 14.09855 78.65837 30093 ft 504 kts 36°
2026-04-28 20:52 14.12582 78.68108 30365 ft 504 kts 36°
2026-04-28 20:52 14.15296 78.70392 30627 ft 503 kts 36°
2026-04-28 20:52 14.18014 78.72677 30904 ft 503 kts 36°
2026-04-28 20:52 14.20728 78.74949 31191 ft 502 kts 36°
2026-04-28 20:53 14.26162 78.79468 31743 ft 501 kts 36°
2026-04-28 20:53 14.28872 78.81714 32046 ft 500 kts 36°
2026-04-28 20:53 14.31561 78.83987 32330 ft 500 kts 36°
2026-04-28 20:54 14.34196 78.86270 32618 ft 500 kts 36°
2026-04-28 20:54 14.36847 78.88598 32912 ft 500 kts 36°
2026-04-28 20:54 14.39486 78.90926 33213 ft 499 kts 36°
2026-04-28 20:54 14.42130 78.93259 33548 ft 498 kts 36°
2026-04-28 20:55 14.44766 78.95581 33774 ft 497 kts 36°
2026-04-28 20:55 14.47396 78.97893 33786 ft 497 kts 36°
2026-04-28 20:55 14.52672 79.02524 33776 ft 498 kts 36°
2026-04-28 20:56 14.57951 79.07158 33774 ft 498 kts 36°
2026-04-28 20:56 14.63224 79.11789 33772 ft 498 kts 36°
2026-04-28 20:57 14.68464 79.16395 33776 ft 497 kts 35°
2026-04-28 20:57 14.73754 79.21048 33755 ft 501 kts 35°
2026-04-28 20:58 14.79063 79.25719 33769 ft 501 kts 35°
2026-04-28 20:58 14.84373 79.30396 33771 ft 501 kts 35°
2026-04-28 20:59 14.89683 79.35076 33756 ft 501 kts 35°
2026-04-28 20:59 14.94985 79.39752 33770 ft 501 kts 35°
2026-04-28 21:00 15.00280 79.44448 33765 ft 501 kts 35°
2026-04-28 21:00 15.05518 79.49148 33765 ft 502 kts 36°
2026-04-28 21:01 15.10795 79.53895 33763 ft 502 kts 36°
2026-04-28 21:01 15.16072 79.58641 33762 ft 502 kts 36°
2026-04-28 21:02 15.21349 79.63387 33765 ft 502 kts 36°
2026-04-28 21:02 15.26619 79.68128 33758 ft 502 kts 36°
2026-04-28 21:03 15.31893 79.72875 33759 ft 502 kts 36°
2026-04-28 21:03 15.37132 79.77594 33757 ft 502 kts 36°
2026-04-28 21:04 15.42400 79.82344 33762 ft 502 kts 36°
2026-04-28 21:04 15.47677 79.87104 33749 ft 502 kts 36°
2026-04-28 21:05 15.52953 79.91867 33766 ft 502 kts 36°
2026-04-28 21:05 15.58191 79.96600 33763 ft 502 kts 36°
2026-04-28 21:06 15.63461 80.01364 33760 ft 502 kts 36°
2026-04-28 21:06 15.68740 80.06140 33757 ft 502 kts 36°
2026-04-28 21:07 15.74004 80.10906 33765 ft 502 kts 36°
2026-04-28 21:07 15.79275 80.15681 33765 ft 504 kts 35°
2026-04-28 21:08 15.84580 80.20488 33768 ft 507 kts 35°
2026-04-28 21:08 15.89858 80.25277 33769 ft 507 kts 35°
2026-04-28 21:09 15.95175 80.30106 33768 ft 507 kts 35°
2026-04-28 21:09 16.00490 80.34937 33771 ft 507 kts 35°
2026-04-28 21:10 16.05807 80.39771 33773 ft 507 kts 35°
2026-04-28 21:10 16.11120 80.44606 33771 ft 507 kts 35°
2026-04-28 21:11 16.16407 80.49420 33776 ft 509 kts 35°
2026-04-28 21:11 16.21736 80.54275 33777 ft 510 kts 35°
2026-04-28 21:12 16.27067 80.59138 33774 ft 510 kts 35°
2026-04-28 21:12 16.32413 80.64017 33768 ft 510 kts 35°
2026-04-28 21:13 16.37755 80.68898 33771 ft 510 kts 35°
2026-04-28 21:13 16.43089 80.73773 33771 ft 510 kts 35°
2026-04-28 21:14 16.48393 80.78625 33768 ft 510 kts 35°
2026-04-28 21:14 16.53439 80.83870 33769 ft 521 kts 48°
2026-04-28 21:15 16.57164 80.90427 33769 ft 528 kts 58°
2026-04-28 21:15 16.60472 80.97279 33769 ft 530 kts 60°
2026-04-28 21:16 16.63704 81.04181 33766 ft 530 kts 60°
2026-04-28 21:16 16.66960 81.11075 33765 ft 530 kts 59°
2026-04-28 21:17 16.70218 81.17913 33765 ft 530 kts 59°
2026-04-28 21:17 16.73508 81.24802 33767 ft 530 kts 59°
2026-04-28 21:18 16.76791 81.31684 33770 ft 530 kts 59°
2026-04-28 21:18 16.80079 81.38586 33772 ft 531 kts 59°
2026-04-28 21:19 16.83363 81.45488 33771 ft 530 kts 59°
2026-04-28 21:19 16.86643 81.52391 33774 ft 531 kts 59°
2026-04-28 21:20 16.89921 81.59297 33777 ft 531 kts 59°
2026-04-28 21:20 16.93201 81.66213 33777 ft 531 kts 59°
2026-04-28 21:21 16.96473 81.73123 33774 ft 531 kts 59°
2026-04-28 21:21 16.99744 81.80034 33774 ft 531 kts 60°
2026-04-28 21:22 17.02992 81.86905 33790 ft 531 kts 60°
2026-04-28 21:22 17.05729 81.92700 33790 ft 531 kts 60°
2026-04-28 21:23 17.09524 82.00746 33793 ft 531 kts 60°
2026-04-28 21:23 17.12789 82.07674 33793 ft 531 kts 60°
2026-04-28 21:24 17.16045 82.14601 33790 ft 531 kts 60°
2026-04-28 21:24 17.19273 82.21554 33809 ft 531 kts 60°
2026-04-28 21:25 17.22488 82.28518 33807 ft 531 kts 60°
2026-04-28 21:25 17.25680 82.35434 33826 ft 531 kts 60°
2026-04-28 21:26 17.28878 82.42364 33802 ft 527 kts 60°
2026-04-28 21:26 17.32068 82.49281 33800 ft 526 kts 60°
2026-04-28 21:27 17.35246 82.56178 33815 ft 526 kts 60°
2026-04-28 21:27 17.38419 82.63073 33817 ft 526 kts 60°
2026-04-28 21:28 17.41571 82.69928 33814 ft 526 kts 61°
2026-04-28 21:28 17.44747 82.76846 33810 ft 526 kts 61°
2026-04-28 21:29 17.47908 82.83738 33827 ft 524 kts 61°
2026-04-28 21:29 17.51062 82.90623 33819 ft 524 kts 61°
2026-04-28 21:30 17.54215 82.97511 33823 ft 524 kts 61°
2026-04-28 21:30 17.57364 83.04399 33819 ft 524 kts 61°